Lid_Strength_Index
10 10 10 10 10 9 8 6 5 5 4 4 4 5 6 5 5 8 7 6 7 6 6 6 4 4 4 5 6 6 6 7 12 17 16 16 16 16 16 15 15 15 14
10 10 9 9 9 8 6 5 4 4 4 4 4 4 4 4 4 5 7 7 6 6 6 6 4 4 4 4 6 6 7 12 14 17 17 17 16 15 16 16 15 15 16
10 10 9 9 8 7 6 6 5 5 5 5 6 6 5 4 5 5 6 7 7 6 6 6 4 4 5 4 5 6 11 14 14 17 18 16 17 16 17 16 16 16 16
11 10 9 9 8 7 6 6 6 6 7 7 6 6 6 6 7 6 6 8 9 9 8 6 4 4 4 4 8 11 13 16 17 17 18 18 18 17 17 18 19 18 19
11 10 10 9 8 7 7 8 7 7 7 7 7 7 7 8 8 8 10 12 13 14 14 10 6 5 9 9 12 14 15 17 18 19 19 19 19 19 20 19 20 20 20
12 11 11 10 9 8 9 8 8 8 8 9 10 10 10 10 9 9 13 14 14 15 15 16 15 15 14 13 13 13 15 17 19 19 20 20 19 20 20 20 21 22 23
12 12 13 12 11 11 10 10 11 11 10 11 11 11 12 13 11 11 14 15 16 17 16 16 16 16 16 17 16 16 16 16 16 18 20 20 20 19 19 21 20 20 22
13 13 13 12 13 12 12 12 12 12 12 13 13 13 13 14 12 13 15 15 16 17 17 17 17 17 17 18 19 20 20 20 19 18 18 18 18 18 18 18 20 23 22
13 13 13 13 13 12 13 13 13 13 14 14 14 14 15 14 13 14 16 17 18 18 17 17 17 18 17 17 20 21 20 20 17 16 17 17 17 17 19 20 22 23 23
13 13 13 13 13 13 14 14 13 14 14 14 15 15 15 15 14 14 15 17 19 19 19 19 18 19 18 18 21 22 23 23 23 24 24 22 21 20 19 19 19 22 23
14 13 14 13 13 14 14 14 14 14 15 15 15 15 15 15 13 14 15 17 18 18 20 20 19 18 18 19 20 23 24 23 23 24 24 24 23 23 23 23 22 21 23
15 15 15 14 13 13 14 14 14 15 15 16 16 16 16 15 14 14 14 15 17 19 20 19 18 17 18 19 20 20 21 22 23 24 24 25 25 24 24 23 23 22 22
17 15 15 14 14 14 14 14 14 15 16 16 16 17 17 16 15 14 14 15 15 17 17 17 16 17 18 18 18 19 21 22 24 25 25 25 25 24 23 23 23 22 22
19 16 15 13 13 13 14 14 14 15 15 16 16 17 17 17 17 18 18 18 18 18 18 19 18 19 19 20 21 21 22 23 23 24 25 24 23 23 23 23 24 24 25
17 19 17 17 15 13 13 13 13 13 14 15 16 15 16 17 17 16 18 19 20 20 21 21 22 22 23 23 23 23 23 23 24 23 23 24 24 23 23 22 23 25 25
14 18 18 16 17 16 14 13 11 11 12 12 12 13 13 13 14 15 15 16 17 18 21 22 23 23 23 23 24 24 23 23 23 23 23 23 24 24 24 24 24 25 26
14 17 19 18 17 18 15 15 15 14 11 12 12 12 13 13 13 14 14 15 16 18 21 22 22 22 23 23 23 23 23 22 22 22 23 24 24 24 25 25 25 26 27
14 14 16 20 20 20 20 14 15 16 15 15 12 12 12 12 13 14 14 16 20 20 21 22 22 22 22 23 23 23 23 23 23 23 24 24 25 25 26 26 26 28 29
14 16 18 22 22 22 23 23 22 22 14 14 14 13 13 11 12 13 15 20 21 23 23 22 22 22 23 23 24 24 24 24 24 25 25 25 26 26 28 28 28 29 30
16 22 21 22 23 23 23 23 24 24 18 15 15 19 21 18 17 20 22 23 22 23 24 23 24 24 24 24 25 25 25 26 26 26 27 26 27 27 28 30 30 31 33
18 21 21 24 22 21 22 22 22 22 23 21 19 21 16 22 23 22 24 25 24 24 25 25 25 25 25 25 25 25 25 26 27 27 27 28 28 29 29 29 32 32 33
17 19 22 20 21 22 21 21 22 22 22 22 23 23 12 20 24 24 24 24 25 24 24 23 24 24 24 24 25 25 26 27 27 27 28 29 29 29 31 31 32 36 37
17 19 21 23 21 22 22 22 22 21 22 23 23 21 23 17 19 20 20 20 20 25 26 24 25 25 25 24 25 24 25 26 26 26 27 29 29 30 30 32 34 37 36
16 17 18 19 21 20 20 21 21 22 21 21 21 19 18 18 16 17 17 16 17 20 24 23 23 23 25 25 25 25 26 26 25 26 26 27 29 31 33 35 35 37 37
12 15 17 18 19 19 20 21 20 19 19 19 19 20 21 22 22 19 19 19 17 20 25 26 26 25 26 26 27 28 26 24 26 26 26 28 29 31 32 32 36 37 37
13 13 15 16 17 18 19 19 19 20 20 21 20 20 20 20 20 20 20 20 19 21 25 28 27 27 27 27 27 25 25 24 26 26 26 27 28 31 32 33 35 37 37